Location: Andershausen
(51.8462°N, 9.8595°E)
Time: 06:29:21
(UTC+00:00)

Cosmos 2026 Rocket - Pass Details

Date: 18 November 2025
Orbit: 938 x 1000 km, 82.9° (Epoch: 11 December)

Event Time Altitude Azimuth Distance (km) Brightness Sun altitude
Rises 18:12:17 0° 348° (NNW) 3,615 7.1 -25.3°
Reaches altitude 10° 18:14:46 10° 348° (NNW) 2,670 6.4 -25.7°
Maximum altitude 18:20:51 78° 263° (W) 973 4.0 -26.7°
Drops below altitude 10° 18:26:58 10° 178° (S) 2,683 6.2 -27.6°
Sets 18:29:28 0° 177° (S) 3,634 6.9 -28.0°
